TimeCDT,TemperatureF,Dew PointF,Humidity,Sea Level PressureIn,VisibilityMPH,Wind Direction,Wind SpeedMPH,Gust SpeedMPH,PrecipitationIn,Events,Conditions,WindDirDegrees,DateUTC
12:53 AM,26.1,23.0,88,30.27,10.0,WSW,3.5,-,N/A,,Clear,240,2013-04-24 05:53:00
1:53 AM,26.1,21.9,84,30.27,10.0,WSW,3.5,-,N/A,,Clear,240,2013-04-24 06:53:00
2:53 AM,26.1,21.9,84,30.25,10.0,WSW,4.6,-,N/A,,Clear,240,2013-04-24 07:53:00
3:53 AM,25.0,21.9,88,30.25,10.0,WSW,4.6,-,N/A,,Clear,240,2013-04-24 08:53:00
4:53 AM,26.6,21.2,80,30.17,10.0,WSW,5.8,-,N/A,,Clear,240,2013-04-24 09:53:00
5:53 AM,25.0,19.9,81,30.22,10.0,SW,3.5,-,N/A,,Clear,230,2013-04-24 10:53:00
6:53 AM,25.0,19.9,81,30.22,10.0,SW,5.8,-,N/A,,Clear,230,2013-04-24 11:53:00
7:53 AM,28.0,21.9,78,30.22,10.0,SW,4.6,-,N/A,,Clear,220,2013-04-24 12:53:00
8:53 AM,33.1,25.0,72,30.22,10.0,SW,9.2,-,N/A,,Clear,220,2013-04-24 13:53:00
9:53 AM,37.9,26.1,62,30.21,10.0,SW,10.4,17.3,N/A,,Clear,230,2013-04-24 14:53:00
10:53 AM,44.1,28.0,53,30.19,10.0,SW,8.1,-,N/A,,Clear,230,2013-04-24 15:53:00
11:53 AM,48.0,27.0,44,30.18,10.0,WSW,10.4,-,N/A,,Clear,240,2013-04-24 16:53:00
12:53 PM,52.0,27.0,38,30.16,10.0,West,17.3,25.3,N/A,,Clear,270,2013-04-24 17:53:00
1:53 PM,55.0,23.0,29,30.14,10.0,WNW,21.9,29.9,N/A,,Clear,290,2013-04-24 18:53:00
2:53 PM,57.0,21.9,26,30.12,10.0,West,21.9,31.1,N/A,,Clear,270,2013-04-24 19:53:00
3:53 PM,57.9,19.0,22,30.10,10.0,WNW,17.3,21.9,N/A,,Clear,290,2013-04-24 20:53:00
4:53 PM,57.0,23.0,27,30.10,10.0,NW,19.6,25.3,N/A,,Overcast,320,2013-04-24 21:53:00
5:53 PM,53.1,26.1,35,30.14,10.0,WNW,23.0,40.3,N/A,,Overcast,300,2013-04-24 22:53:00
6:43 PM,50.0,32.0,50,30.13,10.0,NNW,19.6,31.1,0.00,,Overcast,330,2013-04-24 23:43:00
6:53 PM,51.1,33.1,50,30.17,10.0,NNW,23.0,29.9,0.00,Rain,Light Rain,330,2013-04-24 23:53:00
7:53 PM,46.9,33.1,59,30.18,10.0,NNW,10.4,-,0.00,,Clear,330,2013-04-25 00:53:00
8:53 PM,41.0,33.1,73,30.21,10.0,North,5.8,-,N/A,,Clear,350,2013-04-25 01:53:00
9:53 PM,39.0,30.9,73,30.24,10.0,NNW,4.6,-,N/A,,Clear,340,2013-04-25 02:53:00
10:53 PM,36.0,28.9,76,30.26,10.0,NNW,6.9,-,N/A,,Clear,340,2013-04-25 03:53:00
11:53 PM,36.0,28.0,73,30.25,10.0,Calm,Calm,-,N/A,,Clear,0,2013-04-25 04:53:00